Date String (YYYY-MM-DD hh:mm:ss) UTC,Instrument flags,absolute air pressure of the measurement (hPa),sample flow rate (lpm),inlet stack bypass flow (lpm),air temperature of the measurement (°C),ambient temperature measured by the external sensor (°C),aerosol sample conditioner tube jacket temperature (°C),OPC LED temperature (°C),internal box temperature (°C),relative humidity of the measurement (%),span deviation,mass concentration of particles derived from Lorenz-Mie calculation of OPC scattering (μg/m³),mass concentration of particles derived from Lorenz-Mie calculation of OPC scattering (μg/m³),mass concentration of particles derived from Lorenz-Mie calculation of OPC scattering (μg/m³)
DateTimeUTC,F1_M11,P_M11,Q1_M11,Q2_M11,T1_M11,T2_M11,T3_M11,T4_M11,T5_M11,U1_M11,ZSPAN_M11,X0_M11,X2_M11,X1_M11
2023-12-14 16:00:00,SystemResetWarning,0833.2,5.00,000.00,018.8,017.8,000.0,027.2,020.0,21.8,0000.4,0026.32,0019.05,0018.28
2023-12-14 16:01:00,SystemResetWarning,0833.2,5.00,000.00,018.8,017.8,000.0,027.2,020.0,21.8,0000.4,0026.37,0018.95,0018.20
2023-12-14 16:02:00,SystemResetWarning,0833.2,5.00,000.00,018.8,017.8,000.0,027.2,020.0,21.9,0000.2,0026.75,0018.89,0018.13
2023-12-14 16:03:00,SystemResetWarning,0833.2,5.00,000.00,018.8,017.8,000.0,027.2,020.0,21.9,0000.2,0027.30,0018.78,0018.03
2023-12-14 16:04:00,SystemResetWarning,0833.2,5.01,000.00,018.8,017.8,000.0,027.1,020.0,22.0,0000.2,0027.14,0018.68,0017.96
2023-12-14 16:05:00,SystemResetWarning,0833.2,5.01,000.00,018.8,017.8,000.0,027.1,020.0,21.9,0000.3,0026.49,0018.62,0017.92
2023-12-14 16:06:00,SystemResetWarning,0833.2,5.00,000.00,018.8,017.8,000.0,027.1,020.0,21.9,0000.4,0026.30,0018.60,0017.88
2023-12-14 16:07:00,SystemResetWarning,0833.2,5.00,000.00,018.8,017.8,000.0,027.1,020.0,22.0,0000.5,0026.40,0018.64,0017.85
2023-12-14 16:08:00,SystemResetWarning,0833.2,5.00,000.00,018.8,017.8,000.0,027.1,020.0,22.1,0000.6,0026.50,0018.71,0017.88
2023-12-14 16:09:00,SystemResetWarning,0833.2,5.01,000.00,018.8,017.8,000.0,027.1,020.0,22.1,0000.6,0026.43,0018.70,0017.90
2023-12-14 16:10:00,SystemResetWarning,0833.2,5.00,000.00,018.8,017.8,000.0,027.1,020.0,22.4,0000.7,0026.57,0018.70,0017.89
2023-12-14 16:11:00,SystemResetWarning,0833.2,5.00,000.00,018.8,017.8,000.0,027.1,020.0,22.5,0000.8,0026.83,0018.72,0017.87
2023-12-14 16:12:00,SystemResetWarning,0833.2,5.00,000.00,018.8,017.8,000.0,027.1,020.0,22.5,0000.8,0026.79,0018.78,0017.93
2023-12-14 16:13:00,SystemResetWarning,0833.2,5.00,000.00,018.8,017.8,000.0,027.1,020.0,22.4,0000.8,0026.40,0018.85,0017.99
2023-12-14 16:14:00,SystemResetWarning,0833.2,5.00,000.00,018.8,017.8,000.0,027.1,020.0,22.4,0000.8,0025.92,0018.95,0018.08
2023-12-14 16:15:00,SystemResetWarning,0833.1,5.00,000.00,018.8,017.8,000.0,027.1,020.0,22.5,0000.7,0026.12,0019.06,0018.18
2023-12-14 16:16:00,SystemResetWarning,0833.1,4.99,000.00,018.8,017.8,000.0,027.1,020.0,22.4,0000.7,0026.15,0019.13,0018.25
2023-12-14 16:17:00,SystemResetWarning,0833.0,5.00,000.00,018.8,017.8,000.0,027.1,020.0,22.6,0000.7,0026.00,0019.16,0018.32
2023-12-14 16:18:00,SystemResetWarning,0833.2,5.00,000.00,018.8,017.8,000.0,027.1,020.0,22.6,0000.6,0025.97,0019.20,0018.42
2023-12-14 16:19:00,SystemResetWarning,0833.0,5.00,000.00,018.8,017.8,000.0,027.1,020.0,22.6,0000.7,0026.51,0019.29,0018.51
2023-12-14 16:20:00,SystemResetWarning,0833.0,5.01,000.00,018.8,017.8,000.0,027.1,020.0,22.6,0000.7,0027.92,0019.48,0018.63
2023-12-14 16:21:00,SystemResetWarning,0833.0,5.00,000.00,018.8,017.8,000.0,027.1,020.0,22.6,0000.6,0027.88,0019.56,0018.74
2023-12-14 16:22:00,SystemResetWarning,0833.0,5.00,000.00,018.8,017.8,000.0,027.1,020.0,22.6,0000.4,0028.39,0019.64,0018.83
2023-12-14 16:23:00,SystemResetWarning,0833.0,5.00,000.00,018.8,017.8,000.0,027.1,020.0,22.6,0000.4,0028.84,0019.70,0018.87
2023-12-14 16:24:00,SystemResetWarning,0833.1,4.99,000.00,018.8,017.8,000.0,027.1,020.0,22.5,0000.5,0028.88,0019.69,0018.86
2023-12-14 16:25:00,SystemResetWarning,0833.0,4.99,000.00,018.8,017.9,000.0,027.1,020.0,22.7,0000.5,0028.82,0019.67,0018.83
2023-12-14 16:26:00,SystemResetWarning,0833.1,5.00,000.00,018.8,017.9,000.0,027.1,020.0,22.8,0000.5,0028.78,0019.70,0018.83
2023-12-14 16:27:00,SystemResetWarning,0833.1,5.00,000.00,018.8,017.9,000.0,027.1,020.0,22.7,0000.3,0028.90,0019.71,0018.83
2023-12-14 16:28:00,SystemResetWarning,0833.2,5.00,000.00,018.8,017.9,000.0,027.1,020.0,22.6,0000.3,0028.92,0019.70,0018.82
2023-12-14 16:29:00,SystemResetWarning,0833.2,4.99,000.00,018.8,017.9,000.0,027.1,020.0,22.4,0000.2,0029.01,0019.76,0018.83
2023-12-14 16:30:00,SystemResetWarning,0833.3,5.00,000.00,018.8,017.9,000.0,027.1,020.0,22.2,0000.2,0028.99,0019.80,0018.87
2023-12-14 16:31:00,SystemResetWarning,0833.3,5.01,000.00,018.8,017.9,000.0,027.1,020.0,22.0,0000.2,0027.97,0019.70,0018.85
2023-12-14 16:32:00,SystemResetWarning,0833.2,5.01,000.00,018.8,017.9,000.0,027.1,020.0,22.2,0000.2,0027.84,0019.70,0018.82
2023-12-14 16:33:00,SystemResetWarning,0833.2,5.00,000.00,018.8,017.9,000.0,027.1,020.0,22.2,0000.3,0027.45,0019.72,0018.83
2023-12-14 16:34:00,SystemResetWarning,0833.2,5.00,000.00,018.8,017.9,000.0,027.1,020.0,22.0,0000.4,0026.89,0019.64,0018.81
2023-12-14 16:35:00,SystemResetWarning,0833.3,4.99,000.00,018.8,017.9,000.0,027.1,020.0,22.0,0000.3,0026.76,0019.60,0018.77
2023-12-14 16:36:00,SystemResetWarning,0833.3,5.00,000.00,018.8,017.9,000.0,027.1,020.0,22.0,0000.4,0026.81,0019.61,0018.77
2023-12-14 16:37:00,SystemResetWarning,0833.4,5.00,000.00,018.8,017.9,000.0,027.1,020.0,22.1,0000.4,0026.88,0019.63,0018.76
2023-12-14 16:38:00,SystemResetWarning,0833.4,5.01,000.00,018.8,017.9,000.0,027.1,020.0,22.4,0000.4,0026.87,0019.63,0018.73
2023-12-14 16:39:00,SystemResetWarning,0833.4,5.01,000.00,018.8,017.9,000.0,027.1,020.0,22.4,0000.4,0026.77,0019.63,0018.73
2023-12-14 16:40:00,SystemResetWarning,0833.4,5.00,000.00,018.8,017.9,000.0,027.1,020.0,22.4,0000.5,0027.09,0019.63,0018.70
2023-12-14 16:41:00,SystemResetWarning,0833.4,4.99,000.00,018.8,017.9,000.0,027.1,020.0,22.3,0000.6,0027.31,0019.56,0018.64
2023-12-14 16:42:00,SystemResetWarning,0833.4,4.99,000.00,018.8,017.9,000.0,027.1,020.0,22.2,0000.4,0026.55,0019.56,0018.60
2023-12-14 16:43:00,SystemResetWarning,0833.5,4.99,000.00,018.8,017.9,000.0,027.1,020.0,22.1,0000.5,0026.68,0019.59,0018.59
2023-12-14 16:44:00,SystemResetWarning,0833.4,5.00,000.00,018.8,017.9,000.0,027.1,020.0,22.1,0000.6,0026.92,0019.56,0018.59
2023-12-14 16:45:00,SystemResetWarning,0833.4,5.00,000.00,018.7,017.9,000.0,027.1,020.0,22.2,0000.5,0027.30,0019.60,0018.61
2023-12-14 16:46:00,SystemResetWarning,0833.4,5.01,000.00,018.7,017.9,000.0,027.1,020.0,22.2,0000.4,0027.77,0019.70,0018.66
2023-12-14 16:47:00,SystemResetWarning,0833.5,5.00,000.00,018.7,017.9,000.0,027.1,020.0,22.4,0000.5,0027.91,0019.77,0018.69
2023-12-14 16:48:00,SystemResetWarning,0833.5,5.01,000.00,018.7,017.8,000.0,027.1,020.0,22.4,0000.4,0027.80,0019.75,0018.69
2023-12-14 16:49:00,SystemResetWarning,0833.4,5.00,000.00,018.7,017.8,000.0,027.1,020.0,22.7,0000.6,0027.77,0019.79,0018.76
2023-12-14 16:50:00,SystemResetWarning,0833.5,5.00,000.00,018.7,017.8,000.0,027.1,020.0,22.8,0000.6,0028.34,0019.84,0018.79
2023-12-14 16:51:00,SystemResetWarning,0833.5,5.00,000.00,018.7,017.8,000.0,027.1,020.0,22.8,0000.6,0028.41,0019.85,0018.80
2023-12-14 16:52:00,SystemResetWarning,0833.5,4.99,000.00,018.7,017.8,000.0,027.1,020.0,22.6,0000.6,0028.26,0019.88,0018.80
2023-12-14 16:53:00,SystemResetWarning,0833.5,5.01,000.00,018.7,017.8,000.0,027.1,020.0,22.4,0000.5,0028.31,0019.90,0018.84
2023-12-14 16:54:00,SystemResetWarning,0833.5,5.01,000.00,018.7,017.8,000.0,027.1,020.0,22.3,0000.5,0028.54,0019.92,0018.87
2023-12-14 16:55:00,SystemResetWarning,0833.4,5.00,000.00,018.7,017.8,000.0,027.1,020.0,22.2,0000.6,0028.60,0019.92,0018.88
2023-12-14 16:56:00,SystemResetWarning,0833.5,4.99,000.00,018.7,017.8,000.0,027.1,020.0,22.3,0000.7,0028.07,0019.90,0018.84
2023-12-14 16:57:00,SystemResetWarning,0833.5,5.00,000.00,018.7,017.8,000.0,027.1,020.0,22.4,0000.6,0027.51,0019.83,0018.80
2023-12-14 16:58:00,SystemResetWarning,0833.5,4.99,000.00,018.7,017.8,000.0,027.1,020.0,22.5,0000.5,0027.49,0019.79,0018.79
2023-12-14 16:59:00,SystemResetWarning,0833.5,5.00,000.00,018.7,017.8,000.0,027.2,020.0,22.5,0000.5,0027.56,0019.79,0018.78
